Location: Juzet
(42.9779°N, 0.7597°E)
Time: 19:13:49
(UTC+00:00)

MOZ.5/SAFIR/RUBIN 5/SL-8 - Pass Details

Date: 14 July 2020
Orbit: 677 x 706 km, 98.1° (Epoch: 12 August)

Event Time Altitude Azimuth Distance (km) Brightness Sun altitude
Exits shadow 02:04:31 37° 243° (WSW) 1,095 4.4 -19.6°
Maximum altitude 02:05:09 38° 262° (W) 1,061 4.4 -19.5°
Drops below altitude 10° 02:09:38 10° 331° (NNW) 2,182 6.7 -19.1°
Sets 02:12:03 0° 340° (NNW) 3,107 7.7 -18.9°
